Home   Weather   Sapporo   Past weeks

Flag for Japan Past Weather in Sapporo, Japan — Yesterday and Last 2 Weeks

Now
57 °F

Overcast.


Feels Like: 57 °F
Forecast: 49 / 60 °F
Wind: 5 mph from Southeast

Location: Sapporo

Current Time: May 27, 2017 at 7:13:46 pm

Latest Report: May 27, 2017 at 6:00 pm


Visibility: 6 mi

Pressure: 29.78 "Hg

Humidity: 89%

Dew Point: 54 °F

Location of SapporoLocation

Past Weather in Sapporo — Graph

°F

Sapporo Temperature Yesterday

Maximum temperature yesterday: 72 °F (at 12:00 pm)
Minimum temperature yesterday: 53 °F (at 2:00 am)
Average temperature yesterday: 62 °F

High & Low Weather Summary for the Past Weeks

 TemperatureHumidityPressure
High81 °F (May 19, 3:00 pm)95% (May 27, 1:00 pm)30.06 "Hg (May 27, 1:00 pm)
Low46 °F (May 15, 3:00 am)24% (May 18, 3:00 pm)29.70 "Hg (May 16, 3:00 pm)
Average58 °F65%29.87 "Hg
* Reported May 12 5:00 pm — May 27 5:00 pm, Sapporo. Weather by CustomWeather, © 2017

Note: Actual official high and low records may vary slightly from our data, if they occured in-between our weather recording intervals... More about our weather records

Advertising

Sapporo Weather History for the Previous 24 Hours

Scroll right to see more
 ConditionsComfort  
Time TempWeatherWind HumidityBarometerVisibility
5:00 pm
Sat, May 27
58 °FCool.7 mph91%29.77 "HgN/A
4:00 pm59 °FCool.2 mph91%29.77 "HgN/A
3:00 pm59 °FRain showers. Overcast.3 mph89%29.78 "Hg3 mi
2:00 pm60 °FCool.7 mph88%29.75 "HgN/A
1:00 pm60 °FCool.3 mph95%29.76 "HgN/A
12:00 pm61 °FRain showers. Overcast.3 mph92%29.75 "Hg2 mi
11:00 am63 °FMild.7 mph84%29.75 "HgN/A
10:00 am62 °FMild.6 mph87%29.77 "HgN/A
9:00 am59 °FRain showers. Overcast.5 mph93%29.78 "Hg3 mi
8:00 am60 °FCool.6 mph89%29.78 "HgN/A
7:00 am60 °FCool.7 mph87%29.76 "HgN/A
6:00 am60 °FSprinkles. Overcast.6 mph85%29.75 "Hg5 mi
5:00 am60 °FCool.3 mph78%29.74 "HgN/A
4:00 am59 °FCool.2 mph78%29.74 "HgN/A
3:00 am60 °FOvercast.3 mph76%29.75 "Hg12 mi
2:00 am60 °FCool.3 mph75%29.75 "HgN/A
1:00 am63 °FMild.2 mph70%29.76 "HgN/A
12:00 am62 °FCool.2 mph72%29.76 "HgN/A
11:00 pm
Fri, May 26
62 °FCool.3 mph72%29.76 "HgN/A
10:00 pm63 °FMild.1 mph69%29.77 "HgN/A
9:00 pm63 °FOvercast.3 mph66%29.77 "Hg9 mi
8:00 pm63 °FMild.5 mph66%29.77 "HgN/A
7:00 pm64 °FMild.5 mph64%29.75 "HgN/A
Weather by CustomWeather, © 2017

See weather overviewHow to use our weather pages